Weather History for Gage, OK

Change the Weather History Date:

Friday, May 24, 2013

  Actual Average Record
Temperature  
Mean Temperature 72 °F -  
Max Temperature 88 °F 81 °F 99 °F (1989)
Min Temperature 57 °F 55 °F 39 °F (2001)
Cooling Degree Days 8    
Growing Degree Days 22 (Base 50)    
Moisture  
Dew Point 60 °F    
Average Humidity 72    
Maximum Humidity 94    
Minimum Humidity 37    
Precipitation  
Precipitation 0.00 in - - ()
Sea Level Pressure  
Sea Level Pressure 30.06 in    
Wind  
Wind Speed 12 mph (SE)    
Max Wind Speed 26 mph    
Max Gust Speed 37 mph    
Visibility 10 miles    
Events      
Averages and records for this station are not official NWS values.
T = Trace of Precipitation, MM = Missing Value Source: NWS Daily Summary

Daily Weather History Graph

Daily Weather History Graph

Search for Another Location

Airport:

Trip Planner

Search our weather history database for the weather conditions in past years. The results will help you decide how hot, cold, wet, or windy it might be!

Date:

Astronomy

May. 24, 2013 Rise Set
Actual Time 6:26 AM CDT 8:45 PM CDT
Civil Twilight 5:57 AM CDT 9:15 PM CDT
Nautical Twilight 5:20 AM CDT 9:51 PM CDT
Astronomical Twilight 4:41 AM CDT 10:31 PM CDT
Moon 8:30 PM CDT (5/24) 5:58 AM CDT (5/24)
Length of Visible Light 15h 18m
Length of Day
14h 19m
Full, 100% of the Moon is Illuminated
May 24
Full
May 24
Full
May 31
Last Quarter
Jun 8
New
Jun 16
First Quarter

Hourly Weather History & Observations

Time (CDT) Temp. Heat Index Dew Point Humidity Pressure Visibility Wind Dir Wind Speed Gust Speed Precip Events Conditions
12:53 AM 57.9 °F - 55.0 °F 90% 30.08 in 10.0 mi ESE 8.1 mph - N/A   Clear
1:53 AM 57.9 °F - 54.0 °F 87% 30.09 in 10.0 mi ESE 9.2 mph - N/A   Clear
2:53 AM 59.0 °F - 54.0 °F 83% 30.08 in 10.0 mi East 3.5 mph - N/A   Clear
3:53 AM 57.9 °F - 54.0 °F 87% 30.09 in 10.0 mi East 6.9 mph - N/A   Clear
4:53 AM 57.0 °F - 55.0 °F 93% 30.08 in 10.0 mi East 4.6 mph - N/A   Clear
5:27 AM 57.2 °F - 55.4 °F 94% 30.13 in 10.0 mi ESE 5.8 mph - N/A   Mostly Cloudy
5:53 AM 59.0 °F - 55.9 °F 90% 30.10 in 10.0 mi ESE 4.6 mph - N/A   Overcast
6:53 AM 59.0 °F - 55.9 °F 90% 30.10 in 10.0 mi ESE 10.4 mph - N/A   Overcast
7:53 AM 62.1 °F - 57.0 °F 84% 30.11 in 10.0 mi ESE 9.2 mph - N/A   Overcast
8:53 AM 64.0 °F - 57.9 °F 80% 30.13 in 10.0 mi ESE 9.2 mph - N/A   Overcast
9:17 AM 64.4 °F - 57.2 °F 77% 30.17 in 10.0 mi SE 9.2 mph - N/A   Overcast
9:53 AM 66.0 °F - 59.0 °F 78% 30.12 in 10.0 mi SSE 15.0 mph - N/A   Overcast
10:34 AM 69.8 °F - 60.8 °F 73% 30.16 in 10.0 mi South 15.0 mph 20.7 mph N/A   Overcast
10:53 AM 71.1 °F - 61.0 °F 70% 30.11 in 10.0 mi SSE 16.1 mph 23.0 mph N/A   Overcast
11:28 AM 75.2 °F - 62.6 °F 65% 30.14 in 10.0 mi SSE 15.0 mph - N/A   Scattered Clouds
11:53 AM 77.0 °F - 63.0 °F 62% 30.08 in 10.0 mi South 17.3 mph 23.0 mph N/A   Clear
12:53 PM 78.1 °F - 64.0 °F 62% 30.08 in 10.0 mi South 19.6 mph - N/A   Mostly Cloudy
1:15 PM 80.6 °F 82.3 °F 64.4 °F 58% 30.13 in 10.0 mi SSE 17.3 mph 25.3 mph N/A   Mostly Cloudy
1:53 PM 82.9 °F 84.4 °F 64.0 °F 53% 30.05 in 10.0 mi SE 17.3 mph 24.2 mph N/A   Partly Cloudy
2:53 PM 82.9 °F 84.0 °F 63.0 °F 51% 30.04 in 10.0 mi SSE 23.0 mph 29.9 mph N/A   Scattered Clouds
3:53 PM 84.9 °F 85.4 °F 62.1 °F 46% 30.01 in 10.0 mi SSE 17.3 mph 29.9 mph N/A   Scattered Clouds
4:53 PM 84.9 °F 85.9 °F 63.0 °F 48% 29.98 in 10.0 mi South 20.7 mph 28.8 mph N/A   Scattered Clouds
5:53 PM 88.0 °F 87.1 °F 59.0 °F 37% 29.94 in 10.0 mi South 21.9 mph 28.8 mph N/A   Partly Cloudy
6:53 PM 84.0 °F 85.4 °F 64.0 °F 51% 29.94 in 10.0 mi SSE 20.7 mph 33.4 mph N/A   Clear
7:53 PM 78.1 °F - 63.0 °F 60% 29.95 in 10.0 mi SSE 26.5 mph 34.5 mph N/A   Clear
8:53 PM 71.1 °F - 63.0 °F 75% 29.97 in 10.0 mi SSE 26.5 mph 36.8 mph N/A   Clear
9:53 PM 72.0 °F - 66.9 °F 84% 29.99 in 10.0 mi SSE 18.4 mph 26.5 mph N/A   Clear
10:53 PM 72.0 °F - 66.0 °F 81% 30.00 in 10.0 mi South 18.4 mph - N/A   Clear
11:53 PM 70.0 °F - 61.0 °F 73% 30.01 in 10.0 mi South 18.4 mph 27.6 mph N/A   Clear